When you browse on this site, cookies collect data to enhance your experience and personalize the content and advertising you see.
Visit our Privacy Policy to learn more. By continuing to use the site, you agree to this use of cookies and data.
  • In Lithuania
  • List of Countries
  • For 7 days
  • Water Temperature
  • Weather Map
  • Weather Widgets
  • user-avatar
    Login

    Hourly Weather Kalemie

    Today, 14 November, Thursday

    Time Temperature Precipitation Wind Pressure Humidity
    00:00 +22°C° 0 mm 0 mps 704 mmHg 88%
    01:00 +22°C° 0 mm 0 mps 704 mmHg 88%
    02:00 +21°C° 0 mm 0 mps 704 mmHg 88%
    03:00 +21°C° 0 mm 0 mps 704 mmHg 88%
    04:00 +21°C° 0 mm 0 mps 704 mmHg 87%
    05:00 +21°C° 0 mm 0 mps 704 mmHg 86%
    06:00 +23°C° 0 mm 0 mps 704 mmHg 82%
    07:00 +26°C° 0 mm 1 mps 705 mmHg 79%
    08:00 +28°C° 0 mm 1 mps 706 mmHg 74%
    09:00 +29°C° 0.1 mm 2 mps 706 mmHg 67%
    10:00 +31°C° 0.1 mm 2 mps 706 mmHg 60%
    11:00 +33°C° 0.1 mm 3 mps 706 mmHg 53%
    12:00 +34°C° 0.1 mm 3 mps 705 mmHg 52%
    13:00 +34°C° 0.1 mm 2 mps 705 mmHg 50%
    14:00 +35°C° 0.1 mm 2 mps 704 mmHg 49%
    15:00 +32°C° 0.1 mm 2 mps 704 mmHg 54%
    16:00 +31°C° 0.1 mm 2 mps 703 mmHg 59%
    17:00 +30°C° 0.1 mm 2 mps 703 mmHg 65%
    18:00 +29°C° 0 mm 1 mps 704 mmHg 68%
    19:00 +27°C° 0 mm 1 mps 704 mmHg 72%
    20:00 +24°C° 0 mm 0 mps 705 mmHg 76%
    21:00 +24°C° 0 mm 0 mps 705 mmHg 78%
    22:00 +23°C° 0 mm 0 mps 704 mmHg 79%
    23:00 +23°C° 0 mm 0 mps 704 mmHg 81%

    Tomorrow, 15 November, Friday

    Time Temperature Precipitation Wind Pressure Humidity
    00:00 +23°C° 0 mm 0 mps 704 mmHg 82%
    01:00 +22°C° 0 mm 0 mps 704 mmHg 83%
    02:00 +22°C° 0 mm 0 mps 703 mmHg 84%
    03:00 +22°C° 0 mm 0 mps 703 mmHg 85%
    04:00 +24°C° 0 mm 1 mps 704 mmHg 86%
    05:00 +23°C° 0 mm 1 mps 704 mmHg 87%
    06:00 +25°C° 0 mm 1 mps 705 mmHg 82%
    07:00 +26°C° 0 mm 1 mps 705 mmHg 78%
    08:00 +28°C° 0 mm 1 mps 706 mmHg 74%
    09:00 +29°C° 0 mm 1 mps 706 mmHg 66%
    10:00 +31°C° 0 mm 2 mps 706 mmHg 58%
    11:00 +34°C° 0 mm 2 mps 706 mmHg 50%
    12:00 +35°C° 0 mm 2 mps 705 mmHg 48%
    13:00 +35°C° 0 mm 2 mps 704 mmHg 46%
    14:00 +36°C° 0 mm 2 mps 704 mmHg 44%
    15:00 +35°C° 0 mm 2 mps 703 mmHg 48%
    16:00 +33°C° 0 mm 1 mps 703 mmHg 53%
    17:00 +31°C° 0 mm 1 mps 702 mmHg 57%
    18:00 +30°C° 0.1 mm 1 mps 703 mmHg 61%
    19:00 +29°C° 0.1 mm 1 mps 703 mmHg 65%
    20:00 +27°C° 0.1 mm 1 mps 704 mmHg 69%
    21:00 +27°C° 0 mm 1 mps 703 mmHg 71%
    22:00 +26°C° 0 mm 1 mps 703 mmHg 74%
    23:00 +26°C° 0 mm 1 mps 703 mmHg 77%

    Day after tomorrow, 16 November, Saturday

    Time Temperature Precipitation Wind Pressure Humidity
    00:00 +25°C° 0 mm 1 mps 703 mmHg 77%
    01:00 +25°C° 0 mm 1 mps 702 mmHg 77%
    02:00 +25°C° 0 mm 1 mps 702 mmHg 77%
    03:00 +24°C° 0 mm 1 mps 702 mmHg 78%
    04:00 +24°C° 0 mm 1 mps 702 mmHg 78%
    05:00 +24°C° 0 mm 1 mps 702 mmHg 79%
    06:00 +25°C° 0 mm 1 mps 703 mmHg 74%
    07:00 +27°C° 0 mm 1 mps 704 mmHg 70%
    08:00 +29°C° 0 mm 1 mps 704 mmHg 66%
    09:00 +31°C° 0 mm 2 mps 704 mmHg 57%
    10:00 +34°C° 0 mm 2 mps 704 mmHg 49%
    11:00 +36°C° 0 mm 3 mps 704 mmHg 41%
    12:00 +36°C° 0 mm 3 mps 704 mmHg 38%
    13:00 +37°C° 0 mm 3 mps 703 mmHg 36%
    14:00 +37°C° 0 mm 3 mps 702 mmHg 34%
    15:00 +36°C° 0 mm 2 mps 702 mmHg 39%
    16:00 +35°C° 0 mm 2 mps 702 mmHg 43%
    17:00 +33°C° 0 mm 1 mps 701 mmHg 48%
    18:00 +31°C° 0 mm 1 mps 702 mmHg 51%
    19:00 +29°C° 0 mm 1 mps 702 mmHg 54%
    20:00 +28°C° 0 mm 1 mps 702 mmHg 56%
    21:00 +27°C° 0 mm 1 mps 702 mmHg 58%
    22:00 +27°C° 0 mm 1 mps 702 mmHg 60%
    23:00 +26°C° 0 mm 1 mps 702 mmHg 62%

    17 November, Sunday

    Time Temperature Precipitation Wind Pressure Humidity
    00:00 +26°C° 0 mm 1 mps 702 mmHg 66%
    01:00 +25°C° 0 mm 1 mps 702 mmHg 70%
    02:00 +25°C° 0 mm 1 mps 701 mmHg 73%
    03:00 +24°C° 0 mm 1 mps 702 mmHg 75%
    04:00 +24°C° 0 mm 1 mps 702 mmHg 77%
    05:00 +24°C° 0 mm 1 mps 702 mmHg 78%
    06:00 +25°C° 0 mm 1 mps 703 mmHg 74%
    07:00 +25°C° 0 mm 0 mps 703 mmHg 69%
    08:00 +27°C° 0 mm 0 mps 704 mmHg 65%
    09:00 +29°C° 0 mm 0 mps 704 mmHg 57%
    10:00 +33°C° 0 mm 1 mps 704 mmHg 50%
    11:00 +35°C° 0 mm 1 mps 704 mmHg 42%
    12:00 +35°C° 0 mm 1 mps 703 mmHg 43%
    13:00 +35°C° 0 mm 1 mps 703 mmHg 43%
    14:00 +35°C° 0 mm 1 mps 702 mmHg 43%
    15:00 +34°C° 0 mm 1 mps 702 mmHg 46%
    16:00 +33°C° 0 mm 1 mps 702 mmHg 49%
    17:00 +32°C° 0 mm 1 mps 702 mmHg 52%
    18:00 +30°C° 0 mm 1 mps 702 mmHg 54%
    19:00 +29°C° 0 mm 1 mps 702 mmHg 55%
    20:00 +28°C° 0 mm 1 mps 703 mmHg 56%
    21:00 +28°C° 0 mm 1 mps 703 mmHg 59%
    22:00 +27°C° 0 mm 1 mps 703 mmHg 62%
    23:00 +27°C° 0 mm 1 mps 703 mmHg 64%

    18 November, Monday

    Time Temperature Precipitation Wind Pressure Humidity
    00:00 +26°C° 0 mm 1 mps 703 mmHg 67%
    01:00 +26°C° 0 mm 1 mps 702 mmHg 70%
    02:00 +25°C° 0 mm 1 mps 702 mmHg 72%
    03:00 +26°C° 0 mm 1 mps 702 mmHg 72%
    04:00 +26°C° 0 mm 1 mps 703 mmHg 71%
    05:00 +24°C° 0 mm 0 mps 703 mmHg 71%
    06:00 +24°C° 0 mm 0 mps 704 mmHg 71%
    07:00 +27°C° 0 mm 1 mps 704 mmHg 70%
    08:00 +28°C° 0 mm 1 mps 705 mmHg 70%
    09:00 +30°C° 0 mm 1 mps 705 mmHg 62%
    10:00 +32°C° 0 mm 1 mps 705 mmHg 54%
    11:00 +34°C° 0 mm 1 mps 705 mmHg 46%
    12:00 +34°C° 0 mm 1 mps 704 mmHg 46%
    13:00 +34°C° 0 mm 1 mps 704 mmHg 45%
    14:00 +34°C° 0 mm 1 mps 703 mmHg 44%
    15:00 +33°C° 0 mm 1 mps 703 mmHg 47%
    16:00 +32°C° 0 mm 1 mps 702 mmHg 51%
    17:00 +31°C° 0 mm 1 mps 702 mmHg 54%
    18:00 +30°C° 0 mm 1 mps 703 mmHg 56%
    19:00 +29°C° 0 mm 1 mps 703 mmHg 59%
    20:00 +28°C° 0 mm 1 mps 703 mmHg 61%
    21:00 +27°C° 0 mm 1 mps 704 mmHg 62%
    22:00 +26°C° 0 mm 1 mps 704 mmHg 63%
    23:00 +26°C° 0 mm 1 mps 704 mmHg 64%

    19 November, Tuesday

    Time Temperature Precipitation Wind Pressure Humidity
    00:00 +26°C° 0 mm 1 mps 703 mmHg 69%
    01:00 +25°C° 0 mm 1 mps 703 mmHg 73%
    02:00 +25°C° 0 mm 1 mps 703 mmHg 78%
    03:00 +24°C° 0 mm 1 mps 703 mmHg 79%
    04:00 +24°C° 0 mm 1 mps 703 mmHg 81%
    05:00 +24°C° 0 mm 1 mps 704 mmHg 83%
    06:00 +25°C° 0 mm 1 mps 704 mmHg 78%
    07:00 +26°C° 0 mm 1 mps 705 mmHg 74%
    08:00 +28°C° 0 mm 1 mps 706 mmHg 69%
    09:00 +30°C° 0 mm 1 mps 706 mmHg 61%
    10:00 +33°C° 0 mm 1 mps 706 mmHg 52%
    11:00 +36°C° 0 mm 1 mps 706 mmHg 44%
    12:00 +36°C° 0 mm 1 mps 705 mmHg 42%
    13:00 +35°C° 0 mm 1 mps 704 mmHg 40%
    14:00 +35°C° 0 mm 1 mps 704 mmHg 38%
    15:00 +34°C° 0 mm 1 mps 703 mmHg 42%
    16:00 +33°C° 0 mm 1 mps 703 mmHg 46%
    17:00 +32°C° 0 mm 1 mps 703 mmHg 50%
    18:00 +30°C° 0 mm 1 mps 703 mmHg 56%
    19:00 +29°C° 0 mm 1 mps 703 mmHg 62%
    20:00 +27°C° 0 mm 1 mps 704 mmHg 69%
    21:00 +26°C° 0 mm 1 mps 704 mmHg 72%
    22:00 +26°C° 0 mm 1 mps 704 mmHg 76%
    23:00 +25°C° 0 mm 2 mps 704 mmHg 80%
    Show more